This is the latest recevied weather packets stored in our database for station/object N7CW. If no packets are shown the sender has not sent any weather packets the latest 10 day(s).
| Time | Temp. | Humidity | Pressure | Rain* | Wind** | Luminosity | Snow |
|---|---|---|---|---|---|---|---|
| 1777853346 | 21.67° C | 24% | 1014 hPa | 0 mm | - | 243 W/m² | - |
| 1777853044 | 21.11° C | 24% | 1014.1 hPa | 0 mm | - | 252 W/m² | - |
| 1777852741 | 21.11° C | 24% | 1014.2 hPa | 0 mm | - | 281 W/m² | - |
| 1777852439 | 21.11° C | 23% | 1014.1 hPa | 0 mm | - | 286 W/m² | - |
| 1777852136 | 21.11° C | 23% | 1014.2 hPa | 0 mm | - | 236 W/m² | - |
| 1777851833 | 21.67° C | 22% | 1014 hPa | 0 mm | - | 330 W/m² | - |
| 1777851531 | 21.11° C | 22% | 1014.1 hPa | 0 mm | - | 352 W/m² | - |
| 1777851228 | 21.67° C | 24% | 1014.1 hPa | 0 mm | - | 355 W/m² | - |
| 1777850924 | 21.67° C | 25% | 1014.2 hPa | 0 mm | - | 377 W/m² | - |
| 1777850622 | 22.22° C | 23% | 1014.1 hPa | 0 mm | - | 392 W/m² | - |
| 1777850319 | 21.67° C | 24% | 1014.4 hPa | 0 mm | - | 410 W/m² | - |
| 1777850016 | 22.78° C | 24% | 1014.4 hPa | 0 mm | - | 421 W/m² | - |
| 1777849712 | 22.22° C | 24% | 1013.9 hPa | 0 mm | - | 433 W/m² | - |
| 1777849409 | 21.67° C | 25% | 1014.4 hPa | 0 mm | - | 452 W/m² | - |
| 1777849106 | 21.67° C | 27% | 1014.4 hPa | 0 mm | - | 466 W/m² | - |
| 1777848802 | 21.11° C | 27% | 1014.4 hPa | 0 mm | - | 483 W/m² | - |
| 1777848498 | 22.22° C | 27% | 1014.5 hPa | 0 mm | - | 495 W/m² | - |
| 1777848196 | 21.67° C | 26% | 1014.5 hPa | 0 mm | - | 544 W/m² | - |
| 1777847893 | 21.11° C | 28% | 1014.5 hPa | 0 mm | - | 547 W/m² | - |
| 1777847591 | 21.67° C | 27% | 1014.6 hPa | 0 mm | - | 565 W/m² | - |
| 1777847286 | 22.78° C | 27% | 1014.7 hPa | 0 mm | - | 557 W/m² | - |
| 1777846985 | 22.22° C | 27% | 1014.7 hPa | 0 mm | - | 610 W/m² | - |
| 1777846683 | 21.67° C | 28% | 1014.8 hPa | 0 mm | - | 580 W/m² | - |
| 1777846380 | 22.22° C | 27% | 1015.1 hPa | 0 mm | - | 614 W/m² | - |
| 1777846077 | 22.22° C | 26% | 1015.1 hPa | 0 mm | - | 617 W/m² | - |
* Rain latest hour (hover to see other rain measurements)
** Current wind speed in m/s (hover to see current wind gust speed)